STARLINK-30149 (57516 NORAD) Tracking and Keplerian Element Data

This shows tracking and keplerian element data for the satellite.

Feedback or suggestion? Click here.




ElementValue
Catalog57516
NameSTARLINK-30149
Epoch Orbit2524
Epoch Day13.20808845
Epoch Year2024
RAAN330.7979
Inclination43.0024
Eccentricity0.0001194
Argument of Perigee258.2649
Mean Anonmoly101.8059
Mean Motion15.02543524
Decay Rate0.00013539
L11 57516U 23113Y 24013.20808845 .00013539 00000+0 10152-2 0 9990
L22 57516 43.0024 330.7979 0001194 258.2649 101.8059 15.02543524 25246



Live tracking and technical data element details for STARLINK-30149 (NORAD 57516). STARLINK-30149 can be tracked NOW for your location showing map with azimuth and elevation plus other details from your city location.







IsCatalogInMostPopularTable: catalog: 57516, numindb: 26
Update: records affected: 1



GetName: 57516 STARLINK-30149

Hit Count: updated at: Thu, 22 Feb 2024 02:11:28 GMT